User: anonymous   Login
Location: Zagreb
(45.8000°N, 16.0000°E)
Time: 12:06:48
(UTC+01:00)
Language:

Explorer 11/Cluster Stage 4 - Orbit

View from above orbital plane
View from above orbital plane
View from above satellite
View from above satellite

Ground track
Ground track

The orbit data is extracted from the following two-line orbital elements,

1 00107U 61013A   22018.59422670  .00000729  00000-0  79448-4 0  9991
2 00107  28.7872 143.8788 0544565   7.4649 353.3660 14.09518551 48133
Epoch (UTC): 18 January 2022 14:15:41
Eccentricity: 0.0544565
inclination: 28.7872°
perigee height: 467 km
apogee height: 1255 km
right ascension of ascending node: 143.8788°
argument of perigee: 7.4649°
revolutions per day: 14.09518551
mean anomaly at epoch: 353.3660°
orbit number at epoch: 4813

The dashed part of the orbit path shows where the satellite is in the earth's shadow,  

DLR